This is the latest recevied weather packets stored in our database for station/object KC8JWT. If no packets are shown the sender has not sent any weather packets the latest 10 day(s).
| Time | Temp. | Humidity | Pressure | Rain* | Wind** | Luminosity | Snow |
|---|---|---|---|---|---|---|---|
| 1778135733 | 10° C | 75% | 1013.8 hPa | 0 mm | - | 0 W/m² | - |
| 1778135431 | 10.56° C | 74% | 1013.9 hPa | 0 mm | - | 0 W/m² | - |
| 1778135127 | 10.56° C | 73% | 1013.8 hPa | 0 mm | - | 0 W/m² | - |
| 1778134825 | 10.56° C | 69% | 1013.9 hPa | 0 mm | - | 0 W/m² | - |
| 1778134522 | 10.56° C | 68% | 1013.8 hPa | 0 mm | - | 0 W/m² | - |
| 1778134220 | 11.11° C | 68% | 1013.8 hPa | 0 mm | - | 0 W/m² | - |
| 1778133918 | 11.11° C | 66% | 1013.8 hPa | 0 mm | - | 0 W/m² | - |
| 1778133614 | 11.11° C | 65% | 1014 hPa | 0 mm | - | 0 W/m² | - |
| 1778133309 | 11.11° C | 62% | 1014 hPa | 0 mm | - | 0 W/m² | - |
| 1778133006 | 11.11° C | 62% | 1014 hPa | 0 mm | - | 0 W/m² | - |
| 1778132702 | 11.11° C | 63% | 1014.2 hPa | 0 mm | - | 0 W/m² | - |
| 1778132399 | 11.11° C | 62% | 1014 hPa | 0 mm | - | 0 W/m² | - |
| 1778132097 | 11.11° C | 64% | 1014.1 hPa | 0 mm | - | 0 W/m² | - |
| 1778131795 | 11.67° C | 65% | 1014.2 hPa | 0 mm | - | 0 W/m² | - |
| 1778131493 | 11.67° C | 65% | 1014 hPa | 0 mm | - | 0 W/m² | - |
| 1778131189 | 11.67° C | 62% | 1014.2 hPa | 0 mm | - | 0 W/m² | - |
| 1778130887 | 11.67° C | 62% | 1014.3 hPa | 0 mm | - | 0 W/m² | - |
| 1778130583 | 11.67° C | 60% | 1014.3 hPa | 0 mm | - | 0 W/m² | - |
| 1778130280 | 11.67° C | 62% | 1014.2 hPa | 0 mm | - | 0 W/m² | - |
| 1778129977 | 11.67° C | 60% | 1014.6 hPa | 0 mm | - | 0 W/m² | - |
| 1778129674 | 11.67° C | 59% | 1014.2 hPa | 0 mm | - | 0 W/m² | - |
| 1778129371 | 11.67° C | 59% | 1014.5 hPa | 0 mm | - | 0 W/m² | - |
| 1778129067 | 11.67° C | 58% | 1014.4 hPa | 0 mm | - | 0 W/m² | - |
| 1778128763 | 11.67° C | 59% | 1014.5 hPa | 0 mm | - | 0 W/m² | - |
| 1778128460 | 11.67° C | 59% | 1014.4 hPa | 0 mm | - | 0 W/m² | - |
* Rain latest hour (hover to see other rain measurements)
** Current wind speed in m/s (hover to see current wind gust speed)